Weather reports worldwide

Advertisment
Hoorn-A, Netherlands (6212): temperature & dewpoint: 14.10.2019 22:00:00 - 20.10.2019 22:00:00 (CEST)Hoorn-A, Netherlands (6212): wind speed & gusts: 14.10.2019 22:00:00 - 20.10.2019 22:00:00 (CEST)Hoorn-A, Netherlands (6212): wind direction: 14.10.2019 22:00:00 - 20.10.2019 22:00:00 (CEST)Hoorn-A, Netherlands (6212): reduced air pressure: 14.10.2019 22:00:00 - 20.10.2019 22:00:00 (CEST)Hoorn-A, Netherlands (6212): visibility: 14.10.2019 22:00:00 - 20.10.2019 22:00:00 (CEST)
Date & Time tt [°C] td [°C] ff [km/h] ff [kn] fx [km/h] fx [kn] dd ppp [hPa] vv [km]
20.10.2019 22:00:00 13,4 8,5 21 11 22 12 NNE 1012,1 10
20.10.2019 21:00:00 13,2 7,4 13 7 14 8 NNE 1011,8 10
20.10.2019 20:00:00 13,2 7,9 9 5 14 8 N 1011,5 10
20.10.2019 19:00:00 13,1 8,0 5 3 11 6 N 1011,1 10
20.10.2019 18:00:00 13,1 8,1 4 2 7 4 - 1010,0 10
20.10.2019 17:00:00 13,2 7,6 4 2 7 4 NW 1010,0 10
20.10.2019 16:00:00 13,2 7,5 8 4 11 6 W 1009,7 10
20.10.2019 15:00:00 13,1 7,3 8 4 11 6 SW 1009,0 10
20.10.2019 14:00:00 13,1 7,7 9 5 14 8 WSW 1009,2 10
20.10.2019 13:00:00 13,0 8,1 13 7 14 8 W 1009,0 10
20.10.2019 12:00:00 13,0 8,4 15 8 14 8 WSW 1008,7 10
20.10.2019 11:00:00 13,1 7,9 16 9 18 10 SW 1008,3 10
20.10.2019 10:00:00 13,1 8,4 15 8 18 10 SW 1007,6 10
20.10.2019 09:00:00 13,1 8,4 18 10 22 12 SW 1006,9 10
20.10.2019 08:00:00 13,3 7,5 26 14 25 14 SW 1006,5 10
20.10.2019 07:00:00 13,5 7,9 24 13 25 14 SSW 1006,1 10
20.10.2019 06:00:00 13,8 8,6 22 12 25 14 SW 1005,4 10
20.10.2019 05:00:00 14,0 7,8 28 15 29 16 SSW 1005,1 10
20.10.2019 04:00:00 14,1 8,0 29 16 29 16 SSW 1004,9 10
20.10.2019 03:00:00 14,1 7,7 24 13 29 16 SSW 1004,9 10
20.10.2019 02:00:00 14,3 8,0 28 15 29 16 SSW 1004,6 10
20.10.2019 01:00:00 14,3 7,1 29 16 29 16 SSW 1004,3 10
20.10.2019 00:00:00 14,3 7,5 31 17 36 19 SW 1003,7 10
19.10.2019 23:00:00 14,5 8,2 28 15 40 21 SW 1003,3 10
19.10.2019 22:00:00 14,6 8,0 44 24 40 21 SSW 1002,8 10
19.10.2019 21:00:00 14,5 7,4 42 23 47 25 S 1002,2 10
19.10.2019 20:00:00 14,4 7,8 44 24 54 29 S 1001,9 10
19.10.2019 19:00:00 14,1 10,3 42 23 61 33 S 1001,3 3,3
19.10.2019 18:00:00 13,8 10,2 48 26 50 27 S 1001,1 10
19.10.2019 17:00:00 14,4 9,9 54 29 54 29 S 1000,7 10
19.10.2019 16:00:00 14,5 10,0 48 26 50 27 S 1000,3 10
19.10.2019 15:00:00 14,3 9,6 50 27 50 27 S 1000,1 10
19.10.2019 14:00:00 14,2 9,8 52 28 50 27 SSE 1000,0 10
19.10.2019 13:00:00 14,3 9,3 52 28 50 27 S 1000,2 10
19.10.2019 12:00:00 13,7 9,7 48 26 47 25 S 1000,2 10
19.10.2019 11:00:00 13,3 8,2 50 27 50 27 S 1000,2 10
19.10.2019 10:00:00 13,5 8,5 46 25 54 29 S 1000,0 10
19.10.2019 09:00:00 13,4 8,5 50 27 54 29 S 999,5 10
19.10.2019 08:00:00 13,7 7,4 57 31 58 31 S 999,2 10
19.10.2019 07:00:00 13,3 7,9 54 29 58 31 S 999,5 10
19.10.2019 06:00:00 14,2 10,2 57 31 58 31 S 999,8 10
19.10.2019 05:00:00 14,5 8,3 54 29 54 29 S 1000,1 10
19.10.2019 04:00:00 14,2 10,2 54 29 54 29 S 1000,3 10
19.10.2019 03:00:00 14,3 9,1 55 30 61 33 S 1000,5 10
19.10.2019 02:00:00 14,4 9,3 63 34 61 33 S 1000,6 10
19.10.2019 01:00:00 14,2 9,4 65 35 68 37 S 1000,8 10
19.10.2019 00:00:00 14,3 8,9 65 35 76 41 S 1001,1 10
18.10.2019 23:00:00 14,2 9,9 61 33 72 39 S 1001,1 10
18.10.2019 22:00:00 13,9 8,8 72 39 79 43 S 1001,1 10
18.10.2019 21:00:00 14,8 9,4 80 43 83 45 S 1000,2 5
18.10.2019 20:00:00 14,7 11,1 68 37 72 39 S 1000,2 10
18.10.2019 19:00:00 14,9 9,1 72 39 79 43 S 999,9 8
18.10.2019 18:00:00 14,9 9,2 65 35 76 41 S 999,9 10
18.10.2019 17:00:00 14,4 8,8 65 35 65 35 SSW 999,9 10
18.10.2019 16:00:00 14,1 8,0 65 35 65 35 SSW 999,4 10
18.10.2019 15:00:00 13,4 8,0 70 38 68 37 SSW 998,6 10
18.10.2019 14:00:00 12,8 9,5 48 26 65 35 S 997,3 10
18.10.2019 13:00:00 13,1 8,9 54 29 65 35 S 996,8 10
18.10.2019 12:00:00 13,2 8,5 54 29 58 31 S 997,4 10
18.10.2019 11:00:00 12,1 9,4 65 35 76 41 SSE 997,6 3,0
18.10.2019 10:00:00 14,2 11,4 55 30 58 31 SSE 998,2 10
18.10.2019 09:00:00 14,3 10,7 52 28 54 29 SSE 999,6 10
18.10.2019 08:00:00 14,3 11,0 50 27 50 27 SSE 1000,1 10
18.10.2019 07:00:00 14,4 11,1 48 26 47 25 SSE 1001,0 10
18.10.2019 06:00:00 14,6 11,6 48 26 50 27 SSE 1001,7 10
18.10.2019 05:00:00 14,6 11,3 48 26 50 27 SSE 1002,4 10
18.10.2019 04:00:00 14,8 11,2 42 23 50 27 SSE 1003,0 10
18.10.2019 03:00:00 14,4 12,0 42 23 47 25 SSE 1003,6 10
18.10.2019 02:00:00 14,8 11,6 39 21 43 23 SSE 1004,3 10
18.10.2019 01:00:00 14,9 10,4 46 25 47 25 SSE 1005,0 10
18.10.2019 00:00:00 15,0 11,0 44 24 43 23 SSE 1005,5 10
17.10.2019 23:00:00 14,9 11,0 41 22 43 23 SSE 1006,1 10
17.10.2019 22:00:00 14,9 10,6 41 22 43 23 SSE 1006,3 10
17.10.2019 21:00:00 14,9 9,8 41 22 40 21 SSE 1006,7 10
17.10.2019 20:00:00 14,8 9,4 37 20 43 23 S 1006,9 10
17.10.2019 19:00:00 14,6 9,7 37 20 43 23 S 1006,9 10
17.10.2019 18:00:00 14,6 10,1 46 25 47 25 S 1007,0 10
17.10.2019 17:00:00 14,3 9,8 42 23 50 27 SSE 1007,0 10
17.10.2019 16:00:00 14,3 10,2 41 22 43 23 SSE 1007,3 10
17.10.2019 15:00:00 14,6 9,8 39 21 43 23 SSE 1007,7 10
17.10.2019 14:00:00 14,3 10,6 41 22 40 21 SSE 1007,8 10
17.10.2019 13:00:00 14,1 8,6 29 16 32 18 SSE 1008,3 10
17.10.2019 12:00:00 14,6 7,3 24 13 25 14 S 1008,4 10
17.10.2019 11:00:00 14,4 6,5 24 13 29 16 S 1008,2 10
17.10.2019 10:00:00 14,2 6,6 28 15 29 16 S 1008,1 10
17.10.2019 09:00:00 14,2 6,1 26 14 25 14 SSW 1007,6 10
17.10.2019 08:00:00 14,0 6,4 24 13 29 16 SSW 1006,7 10
17.10.2019 07:00:00 14,0 6,2 18 10 22 12 SW 1006,5 10
17.10.2019 06:00:00 13,9 6,2 24 13 25 14 W 1006,2 10
17.10.2019 05:00:00 14,0 7,6 26 14 29 16 WSW 1005,8 10
17.10.2019 04:00:00 14,1 8,5 26 14 25 14 WSW 1005,5 10
17.10.2019 03:00:00 13,8 9,9 15 8 18 10 SW 1005,1 10
17.10.2019 02:00:00 13,9 8,7 22 12 29 16 SW 1004,7 10
17.10.2019 01:00:00 14,4 9,4 24 13 25 14 WSW 1004,6 10
17.10.2019 00:00:00 14,2 10,4 21 11 29 16 SW 1004,4 10
16.10.2019 23:00:00 15,2 10,9 26 14 29 16 SSW 1004,1 10
16.10.2019 22:00:00 15,2 11,5 31 17 32 18 SSW 1003,6 10
16.10.2019 21:00:00 14,9 12,3 35 19 36 19 SSW 1003,2 10
16.10.2019 20:00:00 14,6 13,5 41 22 50 27 SSW 1003,3 4,3
16.10.2019 19:00:00 15,7 14,2 52 28 54 29 S 1002,8 10
16.10.2019 18:00:00 15,2 14,4 50 27 50 27 SSE 1002,5 8
16.10.2019 17:00:00 14,6 13,9 48 26 47 25 SSE 1002,8 3,4
16.10.2019 16:00:00 14,1 13,2 46 25 50 27 SSE 1003,1 2,8
16.10.2019 15:00:00 14,0 12,6 48 26 50 27 SSE 1003,5 10
16.10.2019 14:00:00 14,1 11,5 50 27 50 27 SSE 1003,8 10
16.10.2019 13:00:00 13,9 11,3 48 26 50 27 SSE 1004,4 10
16.10.2019 12:00:00 13,9 11,2 42 23 43 23 SSE 1005,0 10
16.10.2019 11:00:00 13,8 11,2 41 22 40 21 SSE 1005,3 10
16.10.2019 10:00:00 14,2 11,5 42 23 40 21 SSE 1005,7 10
16.10.2019 09:00:00 14,9 9,7 39 21 36 19 S 1005,7 10
16.10.2019 08:00:00 15,0 10,4 34 18 40 21 S 1005,5 10
16.10.2019 07:00:00 14,9 11,3 35 19 36 19 SSE 1005,5 10
16.10.2019 06:00:00 15,0 10,7 34 18 32 18 S 1005,7 10
16.10.2019 05:00:00 15,2 10,8 34 18 32 18 S 1005,7 10
16.10.2019 04:00:00 15,3 10,1 31 17 32 18 S 1006,0 10
16.10.2019 03:00:00 15,3 11,4 31 17 29 16 S 1006,2 10
16.10.2019 02:00:00 15,2 11,9 16 9 25 14 S 1006,0 10
16.10.2019 01:00:00 14,9 11,6 13 7 18 10 SSW 1006,2 10
16.10.2019 00:00:00 14,7 11,8 18 10 18 10 SSW 1006,4 10
15.10.2019 23:00:00 14,6 11,7 15 8 22 12 SW 1006,3 10
15.10.2019 22:00:00 14,6 12,8 18 10 22 12 S 1006,0 10
15.10.2019 21:00:00 13,5 12,7 21 11 22 12 SSW 1005,6 4,3
15.10.2019 20:00:00 14,2 12,6 9 5 14 8 SSW 1005,4 10
15.10.2019 19:00:00 14,1 13,0 16 9 22 12 SW 1004,9 10
15.10.2019 18:00:00 14,4 13,0 22 12 22 12 S 1004,6 8
15.10.2019 17:00:00 14,8 12,6 21 11 22 12 SSW 1004,7 10
15.10.2019 16:00:00 14,7 12,6 22 12 25 14 SSW 1004,6 10
15.10.2019 15:00:00 15,0 12,1 28 15 29 16 SSW 1004,3 10
15.10.2019 14:00:00 15,1 12,7 34 18 36 19 SSW 1004,3 10
15.10.2019 13:00:00 15,3 12,6 37 20 40 21 S 1004,3 10
15.10.2019 12:00:00 15,6 12,2 35 19 43 23 S 1004,0 10
15.10.2019 11:00:00 15,7 12,1 46 25 47 25 S 1003,9 10
15.10.2019 10:00:00 15,8 12,5 48 26 47 25 S 1003,2 10
15.10.2019 09:00:00 15,6 13,6 46 25 50 27 S 1002,7 10
15.10.2019 08:00:00 15,6 13,8 46 25 47 25 S 1002,5 10
15.10.2019 07:00:00 15,7 13,7 50 27 54 29 SSE 1002,3 10
15.10.2019 06:00:00 15,9 13,7 46 25 47 25 SSE 1002,4 10
15.10.2019 05:00:00 16,0 13,9 41 22 40 21 S 1002,4 10
15.10.2019 04:00:00 16,3 14,1 37 20 47 25 SSE 1002,2 10
15.10.2019 03:00:00 16,8 14,6 42 23 47 25 SSE 1002,8 10
15.10.2019 02:00:00 17,0 14,6 44 24 43 23 ESE 1002,4 10
15.10.2019 01:00:00 16,8 14,6 42 23 40 21 ESE 1002,0 10
15.10.2019 00:00:00 16,4 14,8 21 11 43 23 SE 1003,3 10
14.10.2019 23:00:00 16,1 14,4 39 21 43 23 ESE 1004,5 10
14.10.2019 22:00:00 15,6 13,9 48 26 50 27 E 1004,5 10

tt = temperature
td = dewpoint
ff = wind speed
fx = gusts
dd = wind direction
ppp = reduced air pressure
vv = visibility

Next stations